Location: Rancho Del Sol Observatory
(38.7214°N, 120.6350°W)
Time: 11:26:13
(UTC-08:00)

Courier 1B Rocket - Pass Details

Date: 28 January 2020
Orbit: 920 x 1202 km, 28.2° (Epoch: 16 February)

Event Time Altitude Azimuth Distance (km) Brightness Sun altitude
Rises 12:24:40 0° 254° (WSW) 3,974 8.4 33.1°
Reaches altitude 10° 12:27:47 10° 246° (WSW) 2,973 8.0 33.0°
Maximum altitude 12:34:14 35° 184° (S) 1,640 10.2 32.9°
Drops below altitude 10° 12:40:17 10° 121° (ESE) 2,782 7.8 32.8°
Sets 12:43:07 0° 112° (ESE) 3,690 8.2 32.7°
